Regional Weather Roundup
Issued by NWS

Home | Current Version | Previous Version | Text Only | Print | Product List | Glossary Off
Versions: 1 2 3 4 5 6 7 8 9 10 11 12 13 14 15 16 17 18 19 20 21 22 23 24 25 26 27 28 29 30 31 32 33 34 35 36 37 38 39 40 41 42 43 44 45 46 47 48 49 50

000
ASUS43 KFSD 191510
RWRSD

WEATHER ROUNDUP FOR SOUTH DAKOTA
NATIONAL WEATHER SERVICE SIOUX FALLS SD
900 AM CST SUN NOV 19 2017

NOTE: "FAIR" INDICATES FEW OR NO CLOUDS BELOW 12,000 FEET WITH NO
SIGNIFICANT WEATHER AND/OR OBSTRUCTIONS TO VISIBILITY.


SDZ001>005-009-010-012>017-191600-
NORTHWEST AND NORTH CENTRAL SOUTH DAKOTA

CITY           SKY/WX    TMP DP  RH WIND       PRES   REMARKS
BUFFALO          N/A     29  19  66 W7        29.87S WCI  22
FAITH            N/A     29  20  69 SW7       29.96R WCI  22
MOBRIDGE       CLEAR     28  23  81 S6        29.93F WCI  22
$$

SDZ012>016-024>037-041>051-057-063-072>074-191600-
SOUTHWEST AND SOUTH CENTRAL SOUTH DAKOTA

CITY           SKY/WX    TMP DP  RH WIND       PRES   REMARKS
RAPID CTY ARPT CLOUDY    28  20  71 CALM      29.98S
PIERRE         SUNNY     29  22  75 SW15      29.99F WCI  18
CUSTER         CLOUDY    31  13  47 CALM      29.99F
ELLSWORTH AFB  CLOUDY    28  20  72 W6        29.97S WCI  22
PHILIP         CLOUDY    30  23  75 W10       30.01S WCI  21
PINE RIDGE     SUNNY     28  21  75 W3        30.04F
SPEARFISH      FAIR      43  14  31 W14       29.96S
WINNER         FAIR      33  22  63 S7        30.04F WCI  27
$$

SDZ004>011-016>023-039-040-191600-
NORTHEAST SOUTH DAKOTA

CITY           SKY/WX    TMP DP  RH WIND       PRES   REMARKS
ABERDEEN       SUNNY     22  19  89 S8        29.98F WCI  12
WATERTOWN      SUNNY     25  23  92 S7        29.98F WCI  17
BROOKINGS      MOSUNNY   24  20  84 S7          N/A  WCI  16
SISSETON         N/A     31  22  69 CALM      29.95F
$$

SDZ017-020-022-023-036>040-048>070-191600-
SOUTHEAST SOUTH DAKOTA

CITY           SKY/WX    TMP DP  RH WIND       PRES   REMARKS
SIOUX FALLS    CLOUDY    28  22  78 SW5       30.07F WCI  23
HURON          SUNNY     27  22  81 S5        30.03F WCI  22
CHAMBERLAIN    SUNNY     31  28  87 CALM      30.05S
MITCHELL       SUNNY     31  23  72 SW7       30.07S WCI  24
YANKTON        SUNNY     28  24  85 CALM      30.11S
$$

ABBREVIATIONS USED IN REMARKS
   TC - TEMPERATURE IN CELSIUS
  WCI - WIND CHILL INDEX
   HX - HEAT INDEX
  VSB - VISIBILITY





USA.gov is the U.S. government's official web portal to all federal, state and local government web resources and services.